This is the latest recevied weather packets stored in our database for station/object SQ7FJB-2. If no packets are shown the sender has not sent any weather packets the latest 10 day(s).
| Time | Temp. | Humidity | Pressure | Rain* | Wind** | Luminosity | Snow |
|---|---|---|---|---|---|---|---|
| 1777900292 | 25.56° C | 32% | 1011.3 hPa | 0 mm | - | - | - |
| 1777899689 | 25.56° C | 31% | 1011.4 hPa | 0 mm | - | - | - |
| 1777899077 | 25.56° C | 33% | 1011.5 hPa | 0 mm | - | - | - |
| 1777898465 | 25.56° C | 31% | 1011.5 hPa | 0 mm | - | - | - |
| 1777897864 | 25.56° C | 34% | 1011.6 hPa | 0 mm | - | - | - |
| 1777897264 | 25.56° C | 33% | 1011.7 hPa | 0 mm | - | - | - |
| 1777896652 | 25.56° C | 33% | 1011.9 hPa | 0 mm | - | - | - |
| 1777896040 | 25° C | 33% | 1011.9 hPa | 0 mm | - | - | - |
| 1777895440 | 25° C | 35% | 1012 hPa | 0 mm | - | - | - |
| 1777894827 | 25° C | 34% | 1012.2 hPa | 0 mm | - | - | - |
| 1777894226 | 24.44° C | 36% | 1012.2 hPa | 0 mm | - | - | - |
| 1777893615 | 23.89° C | 39% | 1012.1 hPa | 0 mm | - | - | - |
| 1777893003 | 23.89° C | 38% | 1012.3 hPa | 0 mm | - | - | - |
| 1777892402 | 23.89° C | 35% | 1012.4 hPa | 0 mm | - | - | - |
| 1777891789 | 24.44° C | 35% | 1012.4 hPa | 0 mm | - | - | - |
| 1777891189 | 24.44° C | 35% | 1012.5 hPa | 0 mm | - | - | - |
| 1777890577 | 24.44° C | 33% | 1012.6 hPa | 0 mm | - | - | - |
| 1777889977 | 24.44° C | 34% | 1012.7 hPa | 0 mm | - | - | - |
| 1777889376 | 23.89° C | 35% | 1012.8 hPa | 0 mm | - | - | - |
| 1777888765 | 23.89° C | 34% | 1013 hPa | 0 mm | - | - | - |
| 1777888164 | 23.89° C | 34% | 1013 hPa | 0 mm | - | - | - |
| 1777887564 | 23.33° C | 36% | 1013 hPa | 0 mm | - | - | - |
| 1777886964 | 23.33° C | 36% | 1013.1 hPa | 0 mm | - | - | - |
| 1777886353 | 23.33° C | 36% | 1013.2 hPa | 0 mm | - | - | - |
| 1777885739 | 22.78° C | 37% | 1013.2 hPa | 0 mm | - | - | - |
* Rain latest hour (hover to see other rain measurements)
** Current wind speed in m/s (hover to see current wind gust speed)